パンスターズ彗星

P/2022 C1 ( PanSTARRS )

English version
Home page
Updated on May 29, 2022

---------------------------------------------------------------------

・ プロフィール

発見日 2022年2月3日
発見光度 20.8等
発見者 Pan-STARRS 2 telescope (Haleakala)

・ 軌道要素

Epoch 2022 Jan. 21.0 TT = JDT 2459600.5
T 2021 Nov. 4.57584 TT                                  Rudenko
q   3.9855921            (2000.0)            P               Q
n   0.05085696     Peri.    9.37493     -0.53712336     -0.84004232
a   7.2149910      Node   113.14822     +0.76842062     -0.52462987
e   0.4475957      Incl.    4.76225     +0.34789114     -0.13817524
P  19.4
From 57 observations 2021 Nov. 6-2022 Apr. 6, mean residual 0".3.

・ 光度変化

        m1 = 12.0 + 5 logΔ + 10.0 log r

---------------------------------------------------------------------

軌道要素はM.P.E.C. 2022-H04に掲載されたものです。
光度グラフはComet for Windowsで作成したものです。

---------------------------------------------------------------------

Copyright(C) Seiichi Yoshida (comet@aerith.net). All rights reserved.